<?xml version="1.0" encoding="UTF-8" standalone="no" ?>
<gpx xmlns="http://www.topografix.com/GPX/1/1" xmlns:xsi="http://www.w3.org/2001/XMLSchema-instance" xsi:schemaLocation="http://www.topografix.com/GPX/1/1 http://www.topografix.com/GPX/1/1/gpx.xsd" version="1.1" creator="VisuGPX - https://www.visugpx.com">
  <metadata>
    <name>Aravis, séjour du RCMF</name>
    <desc><![CDATA[Aravis, séjour du RCMF]]></desc>
  </metadata>
  <trk>
    <name><![CDATA[Sulens 4]]></name>
    <trkseg>
      <trkpt lat="45.84475" lon="6.36525">
        <ele>1138</ele>
        <time>2003-02-06T13:08:28Z</time>
      </trkpt>
      <trkpt lat="45.84" lon="6.36115">
        <ele>1244</ele>
        <time>2003-02-06T13:08:28Z</time>
      </trkpt>
      <trkpt lat="45.83949" lon="6.35864">
        <ele>1304</ele>
        <time>2003-02-06T13:08:28Z</time>
      </trkpt>
      <trkpt lat="45.83867" lon="6.35965">
        <ele>1310</ele>
        <time>2003-02-06T13:08:28Z</time>
      </trkpt>
      <trkpt lat="45.83876" lon="6.35932">
        <ele>1310</ele>
        <time>2003-02-06T13:08:28Z</time>
      </trkpt>
      <trkpt lat="45.83736" lon="6.35947">
        <ele>1318</ele>
        <time>2003-02-06T13:08:28Z</time>
      </trkpt>
      <trkpt lat="45.83588" lon="6.35879">
        <ele>1325</ele>
        <time>2003-02-06T13:08:28Z</time>
      </trkpt>
      <trkpt lat="45.83569" lon="6.35804">
        <ele>1333</ele>
        <time>2003-02-06T13:08:28Z</time>
      </trkpt>
      <trkpt lat="45.83593" lon="6.35842">
        <ele>1322</ele>
        <time>2003-02-06T13:08:28Z</time>
      </trkpt>
      <trkpt lat="45.83457" lon="6.3604">
        <ele>1340</ele>
        <time>2003-02-06T13:08:28Z</time>
      </trkpt>
      <trkpt lat="45.83236" lon="6.35911">
        <ele>1440</ele>
        <time>2003-02-06T13:08:28Z</time>
      </trkpt>
      <trkpt lat="45.83292" lon="6.3604">
        <ele>1462</ele>
        <time>2003-02-06T13:08:28Z</time>
      </trkpt>
      <trkpt lat="45.83224" lon="6.3604">
        <ele>1469</ele>
        <time>2003-02-06T13:08:28Z</time>
      </trkpt>
      <trkpt lat="45.83206" lon="6.36156">
        <ele>1481</ele>
        <time>2003-02-06T13:08:28Z</time>
      </trkpt>
      <trkpt lat="45.83578" lon="6.36443">
        <ele>1531</ele>
        <time>2003-02-06T13:08:28Z</time>
      </trkpt>
      <trkpt lat="45.83569" lon="6.36486">
        <ele>1535</ele>
        <time>2003-02-06T13:08:28Z</time>
      </trkpt>
      <trkpt lat="45.83625" lon="6.3648">
        <ele>1611</ele>
        <time>2003-02-06T13:08:28Z</time>
      </trkpt>
      <trkpt lat="45.83655" lon="6.3655">
        <ele>1611</ele>
        <time>2003-02-06T13:08:28Z</time>
      </trkpt>
      <trkpt lat="45.8347" lon="6.36591">
        <ele>1618</ele>
        <time>2003-02-06T13:08:28Z</time>
      </trkpt>
      <trkpt lat="45.83301" lon="6.366">
        <ele>1639</ele>
        <time>2003-02-06T13:08:28Z</time>
      </trkpt>
      <trkpt lat="45.83058" lon="6.36722">
        <ele>1687</ele>
        <time>2003-02-06T13:08:28Z</time>
      </trkpt>
      <trkpt lat="45.83084" lon="6.36754">
        <ele>1693</ele>
        <time>2003-02-06T13:08:28Z</time>
      </trkpt>
      <trkpt lat="45.82908" lon="6.36997">
        <ele>1751</ele>
        <time>2003-02-06T13:08:28Z</time>
      </trkpt>
      <trkpt lat="45.82846" lon="6.3713">
        <ele>1795</ele>
        <time>2003-02-06T13:08:28Z</time>
      </trkpt>
      <trkpt lat="45.82919" lon="6.37186">
        <ele>1837</ele>
        <time>2003-02-06T13:08:28Z</time>
      </trkpt>
      <trkpt lat="45.82402" lon="6.36986">
        <ele>1761</ele>
        <time>2003-02-06T13:08:28Z</time>
      </trkpt>
      <trkpt lat="45.82376" lon="6.36924">
        <ele>1755</ele>
        <time>2003-02-06T13:08:28Z</time>
      </trkpt>
      <trkpt lat="45.82391" lon="6.36849">
        <ele>1740</ele>
        <time>2003-02-06T13:08:28Z</time>
      </trkpt>
      <trkpt lat="45.82485" lon="6.36851">
        <ele>1717</ele>
        <time>2003-02-06T13:08:28Z</time>
      </trkpt>
      <trkpt lat="45.82728" lon="6.36559">
        <ele>1653</ele>
        <time>2003-02-06T13:08:28Z</time>
      </trkpt>
      <trkpt lat="45.82679" lon="6.3652">
        <ele>1652</ele>
        <time>2003-02-06T13:08:28Z</time>
      </trkpt>
      <trkpt lat="45.82702" lon="6.36525">
        <ele>1651</ele>
        <time>2003-02-06T13:08:28Z</time>
      </trkpt>
      <trkpt lat="45.82773" lon="6.36589">
        <ele>1625</ele>
        <time>2003-02-06T13:08:28Z</time>
      </trkpt>
      <trkpt lat="45.82861" lon="6.36445">
        <ele>1602</ele>
        <time>2003-02-06T13:08:28Z</time>
      </trkpt>
      <trkpt lat="45.82973" lon="6.36415">
        <ele>1581</ele>
        <time>2003-02-06T13:08:28Z</time>
      </trkpt>
      <trkpt lat="45.83026" lon="6.36293">
        <ele>1534</ele>
        <time>2003-02-06T13:08:28Z</time>
      </trkpt>
      <trkpt lat="45.83215" lon="6.36126">
        <ele>1483</ele>
        <time>2003-02-06T13:08:28Z</time>
      </trkpt>
      <trkpt lat="45.83245" lon="6.35935">
        <ele>1452</ele>
        <time>2003-02-06T13:08:28Z</time>
      </trkpt>
      <trkpt lat="45.8343" lon="6.36025">
        <ele>1425</ele>
        <time>2003-02-06T13:08:28Z</time>
      </trkpt>
      <trkpt lat="45.83575" lon="6.35808">
        <ele>1392</ele>
        <time>2003-02-06T13:08:28Z</time>
      </trkpt>
      <trkpt lat="45.83724" lon="6.35967">
        <ele>1372</ele>
        <time>2003-02-06T13:08:28Z</time>
      </trkpt>
      <trkpt lat="45.83848" lon="6.35956">
        <ele>1351</ele>
        <time>2003-02-06T13:08:28Z</time>
      </trkpt>
      <trkpt lat="45.83904" lon="6.35885">
        <ele>1326</ele>
        <time>2003-02-06T13:08:28Z</time>
      </trkpt>
      <trkpt lat="45.83955" lon="6.35894">
        <ele>1320</ele>
        <time>2003-02-06T13:08:28Z</time>
      </trkpt>
      <trkpt lat="45.84007" lon="6.36023">
        <ele>1293</ele>
        <time>2003-02-06T13:08:28Z</time>
      </trkpt>
      <trkpt lat="45.84213" lon="6.36239">
        <ele>1246</ele>
        <time>2003-02-06T13:08:28Z</time>
      </trkpt>
      <trkpt lat="45.84314" lon="6.36426">
        <ele>1208</ele>
        <time>2003-02-06T13:08:28Z</time>
      </trkpt>
      <trkpt lat="45.84479" lon="6.36542">
        <ele>1155</ele>
        <time>2003-02-06T13:08:28Z</time>
      </trkpt>
    </trkseg>
  </trk>
</gpx>